Regional Weather Roundup
Issued by NWS Lake Charles, LA

Home | Current Version | Previous Version | Text Only | Print | Product List | Glossary On
Versions: 1 2 3 4 5 6 7 8 9 10 11 12 13 14 15 16 17 18 19 20 21 22 23 24 25 26 27 28 29 30 31 32 33 34 35 36 37 38 39 40 41 42 43 44 45 46 47 48 49 50
000
ASUS44 KLCH 290110
RWRLCH
RWRLCH
REGIONAL WEATHER ROUNDUP
NATIONAL WEATHER SERVICE LAKE CHARLES LA
800 PM CDT MON JUL 28 2014

Note: "fair" indicates few or no clouds below 12,000 feet with no
significant weather and/or obstructions to visibility.


ACROSS SOUTHEAST TEXAS

CITY           SKY/WX    TMP DP  RH WIND       PRES   REMARKS
BEAUMONT       CLEAR     88  72  58 NW5       30.02R
BEAUMONT CITY    N/A     85  77  75 NW5       30.03S
ORANGE         CLEAR     86  74  66 CALM      30.03S
JASPER         CLOUDY    87  75  68 NW5       30.07R
$$

ACROSS CENTRAL LOUISIANA

CITY           SKY/WX    TMP DP  RH WIND       PRES   REMARKS
LEESVILLE      CLOUDY    86  77  74 N6        30.03S
FULLERTON      MOCLDY    86  77  74 CALM      30.01R
ALEXANDRIA INT CLOUDY    82  74  76 CALM      30.01S
ESLER FIELD    CLOUDY    78  74  87 W5        30.02F
DERIDDER         N/A     86  76  73 CALM      30.04S
OAKDALE        CLOUDY    85  79  80 CALM      30.01S THUNDER
OPELOUSAS      TSTM      77  74  88 NE3       30.04R
$$

ACROSS SOUTHWEST AND SOUTH CENTRAL LOUISIANA

CITY           SKY/WX    TMP DP  RH WIND       PRES   REMARKS
SULPHUR        PTCLDY    87  77  71 CALM      30.03R
LAKE CHARLES   PTCLDY    88  74  63 W3        30.01R
CHENNAULT INT  NOT AVBL
CAMERON PHI    CLEAR     86  79  79 W7        30.03R
DEQUINCY         N/A     86  77  74 CALM      30.02S
JENNINGS       MOCLDY    87  78  76 W6        30.01R HX 100
LAFAYETTE      NOT AVBL
NEW IBERIA     CLOUDY    87  76  69 W5        30.01R
ABBEVILLE        N/A     86  78  75 SW5       30.01R
PATTERSON      MOCLDY    84  79  84 W5        30.04S
SALT POINT       N/A     89  80  74 VRB7      29.99F HX 106
$$

SELECTED SITES ACROSS THE REGION

CITY           SKY/WX    TMP DP  RH WIND       PRES   REMARKS
HOUSTON BUSH   PTCLDY    92  69  47 NE7       30.02R
HOUSTON HOBBY  PTCLDY    88  75  65 S8        30.02R
GALVESTON      PTCLDY    86  76  71 SW13      30.05R
COLLEGE STAT   PTCLDY    92  69  47 E7        30.02F
CONROE         CLEAR     84  76  76 N3        30.04R
HUNTSVILLE     MOCLDY    88  73  61 CALM      30.04S
LUFKIN         CLOUDY    78  71  79 E9        30.08F
SHREVEPORT     CLOUDY    86  68  54 N6        30.06R
MONROE         MOCLDY    84  70  62 N7        30.04R
NATCHEZ MS     MOCLDY    81  73  78 NW3       30.03R
BATON ROUGE    CLOUDY    84  75  74 NW7       30.00R
N.O. INTL ARPT MOCLDY    87  75  67 W10       29.98R
SLIDELL        PTCLDY    86  76  71 CALM      29.96S
$$

MARINE REPORTS

STATION/POSITION TIME  TEMP    WIND        PRES    VSBY  WAVE
                       AIR SEA DIR/SP/G                  HT/PER
                 (UTC) (F)     (DEG/KT/KT) (MB)    (MI)  (FT/S)
BUOY 30 S HIGH I NOT AVBL
SEA RIM ST PARK  0100   85     240/ 10/ 13 1017.3R
PORT ARTHUR      0100      89  230/  9/ 10 1016.7S
SABINE PASS N    0100   86 89  250/  5/  9 1017.0R
TEXAS POINT      0100   85 89  240/ 13/ 16 1017.1R
CALCASIEU PASS   0100   85 89  260/ 10/ 13 1017.8R
LK CHARLES BEACH 0100   90 87              1017.1R
MARSH ISLAND     0000   86     280/ 13/ 15   N/A
FRESH WATER LOCK 0100   85 87  240/  8/ 11 1016.2R
AMERADA PASS     0100   85 87  260/  4/ 12 1015.8F
$$



USA.gov is the U.S. government's official web portal to all federal, state and local government web resources and services.